TimeAKST,TemperatureF,Dew PointF,Humidity,Sea Level PressureIn,VisibilityMPH,Wind Direction,Wind SpeedMPH,Gust SpeedMPH,PrecipitationIn,Events,Conditions,WindDirDegrees,DateUTC
12:53 AM,-0.0,-5.1,79,29.69,10.0,Calm,Calm,-,N/A,,Overcast,0,2013-01-06 09:53:00
1:53 AM,-0.0,-5.1,79,29.69,10.0,Calm,Calm,-,N/A,,Overcast,0,2013-01-06 10:53:00
3:53 AM,1.0,-2.0,87,29.68,10.0,Calm,Calm,-,N/A,,Overcast,0,2013-01-06 12:53:00
4:53 AM,3.0,-0.9,84,29.68,10.0,Calm,Calm,-,N/A,,Overcast,0,2013-01-06 13:53:00
5:53 AM,3.9,-0.9,80,29.67,10.0,Calm,Calm,-,N/A,,Mostly Cloudy,0,2013-01-06 14:53:00
6:53 AM,3.0,-0.9,84,29.67,10.0,Calm,Calm,-,N/A,,Mostly Cloudy,0,2013-01-06 15:53:00
7:53 AM,1.9,-0.9,88,29.66,10.0,East,3.5,-,N/A,,Scattered Clouds,100,2013-01-06 16:53:00
8:53 AM,1.0,-2.9,83,29.67,10.0,Calm,Calm,-,N/A,,Scattered Clouds,0,2013-01-06 17:53:00
9:53 AM,1.9,-2.0,83,29.66,10.0,Calm,Calm,-,N/A,,Mostly Cloudy,0,2013-01-06 18:53:00
10:53 AM,3.0,-0.9,84,29.64,10.0,Calm,Calm,-,N/A,,Mostly Cloudy,0,2013-01-06 19:53:00
11:53 AM,1.0,-2.9,83,29.64,10.0,WSW,3.5,-,N/A,,Mostly Cloudy,250,2013-01-06 20:53:00
12:53 PM,-0.9,-5.1,83,29.62,10.0,Calm,Calm,-,N/A,,Scattered Clouds,0,2013-01-06 21:53:00
1:53 PM,-2.0,-5.1,87,29.61,10.0,Calm,Calm,-,N/A,,Mostly Cloudy,0,2013-01-06 22:53:00
2:53 PM,-0.0,-2.9,88,29.60,10.0,Calm,Calm,-,N/A,,Mostly Cloudy,0,2013-01-06 23:53:00
3:53 PM,-0.9,-5.1,83,29.58,10.0,Calm,Calm,-,N/A,,Scattered Clouds,0,2013-01-07 00:53:00
4:53 PM,-5.1,-9.0,83,29.57,10.0,Calm,Calm,-,N/A,,Scattered Clouds,0,2013-01-07 01:53:00
5:53 PM,-9.0,-13.0,83,29.57,10.0,Calm,Calm,-,N/A,,Scattered Clouds,0,2013-01-07 02:53:00
6:53 PM,-9.0,-13.0,83,29.56,10.0,SSW,3.5,-,N/A,,Scattered Clouds,210,2013-01-07 03:53:00
7:53 PM,-2.9,-7.1,82,29.54,10.0,Calm,Calm,-,N/A,,Mostly Cloudy,0,2013-01-07 04:53:00
8:53 PM,-2.0,-6.0,83,29.52,10.0,Calm,Calm,-,N/A,,Overcast,0,2013-01-07 05:53:00
9:53 PM,-0.9,-5.1,83,29.50,10.0,SW,3.5,-,N/A,,Overcast,230,2013-01-07 06:53:00
10:53 PM,-0.9,-6.0,79,29.49,10.0,Calm,Calm,-,N/A,,Scattered Clouds,0,2013-01-07 07:53:00
11:53 PM,-0.0,-4.0,83,29.49,10.0,Calm,Calm,-,N/A,,Scattered Clouds,0,2013-01-07 08:53:00